[[{"header":{"parameterUnit":"m.s-1","parameterCategory":1,"la1":30.2991,"la2":30.254,"lo1":-89.0895,"lo2":-89.0444,"dy":0.0017,"dx":0.0017,"nx":28,"ny":28,"refTime":"2025-01-27T03:00:00:Z","depth":0,"parameterNumber":2,"parameterNumberName":"U-component_of_WINDS"},"data":[0,0,0,0,0,0,0,0,0,0,0,0,0,0,0,0,0,0,0,0,0,0,0,0,0,0,0,0,0,0,0,0,0,0,0,0,0,0,0,0,0,0,0,0,0,0,0,0,0,0,0,0,0,0,0,0,0,0,0.0469,0.047,0,0.0501,0.0502,0.0502,0.0525,0.0526,0.0526,0.0526,0.0559,0.0559,0.056,0,0,0,0,0,0,0,0,0,0,0,0,0,0.0428,0.0428,0.0469,0.047,0.047,0.0501,0.0502,0.0502,0.0525,0.0526,0.0526,0.0526,0.0559,0.0559,0.056,0,0,0,0,0,0,0,0,0,0,0,0,0,0.0451,0.0429,0.0469,0.0485,0.0487,0.0501,0.0502,0.0502,0.0525,0.0526,0.0526,0.0526,0.0558,0.0559,0.056,0.0561,0,0,0.0563,0.0564,0,0,0,0,0,0,0,0,0.045,0.0453,0.0483,0.0484,0.0486,0.051,0.0499,0.0522,0.0525,0.0511,0.0526,0.0526,0.0542,0.0544,0.055,0.0562,0.0563,0.0563,0.0564,0.0565,0.0565,0,0,0,0,0,0,0,0.0448,0.0452,0.0482,0.0483,0.0485,0.0491,0.0495,0.0503,0.0524,0.0512,0.0514,0.0517,0.0543,0.0549,0.0551,0.0564,0.0563,0.0564,0.0565,0.0565,0.0576,0.0576,0,0,0,0,0,0,0.0444,0.045,0.0481,0.0483,0.0468,0.0491,0.0495,0.0502,0.0524,0.0528,0.0517,0.0518,0.0547,0.055,0.0552,0.0553,0.0565,0.0565,0.0566,0.0577,0.0576,0.0576,0,0,0,0,0,0,0.0443,0.0447,0.048,0.0467,0.0472,0.0492,0.0499,0.0502,0.0508,0.0528,0.0532,0.0519,0.0547,0.0551,0.0558,0.0554,0.0566,0.0567,0.0577,0.0576,0.0576,0.0555,0,0,0,0,0,0,0.0442,0.0446,0.0447,0.0467,0.0472,0.0485,0.0498,0.0503,0.051,0.0512,0.0531,0.0534,0.0548,0.0556,0.0559,0.0556,0.0568,0.0577,0.0577,0.0576,0.0556,0.0553,0.0551,0,0,0,0,0,0.044,0.044,0.0447,0.045,0.0473,0.0485,0.0488,0.0503,0.0509,0.051,0.0522,0.0534,0.0554,0.0557,0.056,0.0557,0.0578,0.0577,0.0576,0.0557,0.0554,0.0551,0,0,0,0,0,0,0.042,0.0443,0.0451,0.0457,0.0468,0.0489,0.049,0.05,0.0511,0.0512,0.0531,0.0535,0.054,0.0549,0.0552,0.0558,0.0567,0.0567,0.0551,0.0549,0.0547,0.0544,0.0569,0,0,0,0,0,0.0416,0.0423,0.0443,0.0446,0.0452,0.047,0.0475,0.0486,0.0499,0.0504,0.0518,0.053,0.0539,0.0544,0.0554,0.0557,0.0561,0.0557,0.0555,0.0553,0.0552,0.0553,0.0551,0.0573,0.0573,0.0573,0,0,0.0408,0.0421,0.0425,0.0443,0.0453,0.046,0.0474,0.0481,0.0486,0.0506,0.0513,0.0523,0.0538,0.0542,0.0545,0.055,0.0547,0.0552,0.055,0.0551,0.0552,0.055,0.0548,0.0573,0.0573,0.0573,0,0,0.0396,0.0408,0.0411,0.0421,0.0436,0.0448,0.0449,0.0467,0.0474,0.0482,0.0496,0.0502,0.0518,0.0527,0.0534,0.0525,0.0535,0.0528,0.0516,0.0517,0.0515,0.0514,0.0509,0.0507,0.0527,0.0527,0.0527,0,0.0385,0.0396,0.0412,0.0418,0.0424,0.0442,0.0445,0.0454,0.0471,0.0475,0.0481,0.05,0.0511,0.0517,0.0515,0.052,0.0521,0.0525,0.0514,0.0513,0.0512,0.0507,0.0506,0.0526,0.0526,0.0526,0.0526,0,0.038,0.0387,0.0388,0.0404,0.0411,0.0415,0.0432,0.0437,0.0446,0.0457,0.0464,0.0478,0.049,0.0492,0.0502,0.0499,0.0502,0.0511,0.0521,0.0508,0.0504,0.0503,0.0524,0.0525,0.0525,0.0525,0,0,0.0357,0.0381,0.0381,0.0388,0.0405,0.0411,0.0415,0.0427,0.043,0.0442,0.0445,0.0457,0.0465,0.0472,0.0483,0.0484,0.0474,0.0493,0.0493,0.0488,0.0471,0.0463,0.0461,0.0481,0.0481,0.0481,0.0469,0,0.0348,0.0358,0.0371,0.0376,0.0382,0.0398,0.0402,0.0412,0.0422,0.0429,0.044,0.0447,0.0458,0.0462,0.0463,0.0475,0.0471,0.0476,0.0484,0.0484,0.0479,0.046,0.0452,0.044,0.0468,0.0467,0.0467,0,0.0339,0.0349,0.0353,0.0369,0.0372,0.0375,0.0386,0.0392,0.0404,0.0411,0.0419,0.043,0.0435,0.0444,0.0451,0.0454,0.0458,0.0464,0.0464,0.0465,0.0474,0.0459,0.0437,0.0435,0.0465,0.0466,0.0466,0,0.0321,0.0335,0.0339,0.0345,0.0363,0.0365,0.0372,0.0385,0.039,0.0399,0.0403,0.0412,0.0418,0.0425,0.0438,0.0444,0.0442,0.0453,0.0448,0.0447,0.0446,0.0446,0.0424,0.045,0.045,0.045,0.045,0,0.0309,0.0311,0.0331,0.0333,0.0336,0.0351,0.0353,0.0362,0.0373,0.0377,0.0391,0.0395,0.0413,0.0418,0.0429,0.0432,0.0434,0.044,0.0442,0.0438,0.0437,0.044,0.0441,0.045,0.045,0.045,0.045,0,0.0289,0.0302,0.0308,0.0324,0.0328,0.0329,0.0343,0.0346,0.0356,0.0361,0.0363,0.0379,0.0386,0.04,0.0411,0.0418,0.0418,0.0424,0.0414,0.0415,0.0409,0.0409,0.0387,0.0385,0.0413,0.0413,0.0413,0,0.028,0.0282,0.0298,0.0301,0.0308,0.0314,0.0319,0.0334,0.0339,0.0352,0.0353,0.036,0.0368,0.0378,0.039,0.0398,0.0403,0.0395,0.0405,0.0399,0.0402,0.0401,0.04,0.0393,0.0392,0.0392,0.0392,0,0.0263,0.0269,0.0276,0.0284,0.0289,0.0297,0.0306,0.0308,0.0324,0.0329,0.0336,0.0341,0.0351,0.0359,0.0368,0.0376,0.0386,0.0389,0.0388,0.0383,0.0377,0.0378,0.0407,0.0389,0.0389,0.039,0.039,0.039,0.0247,0.0249,0.026,0.0266,0.0274,0.0281,0.0284,0.0294,0.03,0.0309,0.0318,0.0323,0.0334,0.0348,0.0354,0.0359,0.0364,0.0363,0.0362,0.0362,0.0359,0.0376,0.0361,0.0361,0.0361,0.0361,0.0361,0,0.023,0.0237,0.0243,0.0253,0.0258,0.0267,0.0276,0.028,0.0284,0.0293,0.0299,0.0306,0.0313,0.0325,0.0333,0.0334,0.0339,0.0335,0.0335,0.0336,0.0355,0.0354,0.0331,0.0331,0.0331,0.0331,0.0331,0.0331,0.0221,0.0223,0.0231,0.0237,0.0244,0.0249,0.0254,0.026,0.0267,0.0274,0.0279,0.0287,0.0297,0.0305,0.0311,0.0314,0.0316,0.0311,0.0315,0.0332,0.0335,0.0338,0.0337,0.0311,0.0311,0.0296,0.0296,0.0296]},{"header":{"parameterUnit":"m.s-1","parameterCategory":1,"la1":30.2991,"la2":30.254,"lo1":-89.0895,"lo2":-89.0444,"dy":0.0017,"dx":0.0017,"nx":28,"ny":28,"refTime":"2025-01-27T03:00:00:Z","depth":0,"parameterNumber":3,"parameterNumberName":"V-component_of_WINDS"},"data":[0,0,0,0,0,0,0,0,0,0,0,0,0,0,0,0,0,0,0,0,0,0,0,0,0,0,0,0,0,0,0,0,0,0,0,0,0,0,0,0,0,0,0,0,0,0,0,0,0,0,0,0,0,0,0,0,0,0,1.656,1.6559,0,1.6465,1.6464,1.6463,1.6469,1.6471,1.6472,1.6474,1.6372,1.6368,1.6364,0,0,0,0,0,0,0,0,0,0,0,0,0,1.6743,1.6739,1.656,1.6559,1.6558,1.6466,1.6464,1.6463,1.6469,1.6471,1.6473,1.6474,1.6374,1.6369,1.6364,0,0,0,0,0,0,0,0,0,0,0,0,0,1.6657,1.6738,1.656,1.655,1.6548,1.6466,1.6464,1.6463,1.6469,1.6471,1.6473,1.6475,1.6375,1.6369,1.6363,1.6284,0,0,1.6345,1.6342,0,0,0,0,0,0,0,0,1.6662,1.665,1.6553,1.655,1.6548,1.6481,1.6491,1.6403,1.6468,1.6499,1.6474,1.6476,1.6407,1.6398,1.6376,1.6279,1.6275,1.6345,1.6341,1.6338,1.6337,0,0,0,0,0,0,0,1.6668,1.6654,1.6522,1.6551,1.6548,1.6549,1.6539,1.6475,1.6442,1.6496,1.6497,1.6485,1.6406,1.6381,1.6373,1.6274,1.6345,1.6339,1.6336,1.6333,1.6107,1.6104,0,0,0,0,0,0,1.6677,1.6659,1.6525,1.652,1.6612,1.6544,1.6533,1.6501,1.6443,1.6436,1.6484,1.6486,1.6391,1.638,1.637,1.6272,1.6338,1.6333,1.6329,1.6109,1.6106,1.6104,0,0,0,0,0,0,1.6681,1.6665,1.6529,1.659,1.6572,1.6538,1.6502,1.6498,1.6473,1.6433,1.6427,1.6465,1.6392,1.6378,1.6306,1.6269,1.633,1.6325,1.6112,1.6108,1.6105,1.6077,0,0,0,0,0,0,1.6686,1.6666,1.6636,1.6589,1.6569,1.6467,1.65,1.6494,1.6463,1.6466,1.6414,1.6407,1.6393,1.6314,1.63,1.6262,1.632,1.6115,1.611,1.6106,1.6081,1.6073,1.6066,0,0,0,0,0,1.6692,1.6631,1.6635,1.6619,1.6531,1.6465,1.6454,1.6439,1.6461,1.643,1.6404,1.6409,1.6276,1.6307,1.629,1.625,1.6117,1.6112,1.6106,1.6084,1.6074,1.6066,0,0,0,0,0,0,1.6673,1.6625,1.6628,1.655,1.6512,1.6467,1.6427,1.6429,1.6383,1.6387,1.6369,1.6358,1.6284,1.626,1.6296,1.617,1.6199,1.619,1.6188,1.6178,1.6171,1.6177,1.6315,0,0,0,0,0,1.6661,1.6613,1.6572,1.6507,1.6488,1.6461,1.6432,1.6424,1.6383,1.6366,1.6336,1.6295,1.6243,1.621,1.6161,1.6078,1.6066,1.6042,1.6035,1.6029,1.602,1.5974,1.5963,1.6086,1.6086,1.6086,0,0,1.6633,1.66,1.6571,1.6503,1.6472,1.6421,1.6447,1.6392,1.6354,1.6358,1.6287,1.6263,1.6216,1.6138,1.6102,1.6116,1.5984,1.6022,1.6017,1.6012,1.5967,1.5956,1.5945,1.6082,1.6083,1.6083,0,0,1.6556,1.6527,1.647,1.6439,1.6393,1.6376,1.6362,1.6316,1.6301,1.6231,1.6232,1.6186,1.6099,1.6065,1.6036,1.5948,1.595,1.5932,1.5892,1.5847,1.5837,1.5829,1.5795,1.5784,1.5925,1.5925,1.5925,0,1.6526,1.6451,1.6439,1.6384,1.6354,1.6357,1.6298,1.6268,1.6208,1.6186,1.6203,1.6093,1.6062,1.5976,1.5954,1.5932,1.5914,1.5937,1.584,1.5831,1.5823,1.5791,1.5779,1.5923,1.5923,1.5923,1.5923,0,1.6416,1.6364,1.6323,1.6266,1.6231,1.6174,1.6153,1.6119,1.6115,1.6095,1.6023,1.5986,1.5929,1.5909,1.5903,1.5821,1.5831,1.5844,1.5873,1.5809,1.5779,1.5767,1.592,1.5921,1.5921,1.5922,0,0,1.6322,1.6262,1.6246,1.622,1.6171,1.6129,1.6073,1.6019,1.5989,1.5948,1.5898,1.5825,1.5837,1.5805,1.5796,1.5757,1.5688,1.5775,1.5773,1.5758,1.5593,1.5582,1.5569,1.569,1.5688,1.5686,1.5597,0,1.6239,1.6139,1.6128,1.6038,1.5989,1.5992,1.5942,1.5906,1.5887,1.5841,1.5819,1.5767,1.5788,1.5768,1.573,1.5704,1.5654,1.5711,1.5642,1.564,1.5652,1.5553,1.5541,1.5459,1.5585,1.5583,1.5582,0,1.6127,1.6085,1.5991,1.5948,1.5927,1.5882,1.5832,1.5789,1.5748,1.5736,1.5701,1.5697,1.5637,1.5671,1.5587,1.5626,1.5597,1.5581,1.5577,1.5568,1.5605,1.554,1.5432,1.5419,1.5563,1.5565,1.5566,0,1.6066,1.5985,1.5918,1.5896,1.5845,1.5814,1.5791,1.5752,1.572,1.5676,1.5655,1.5604,1.5575,1.5535,1.5518,1.5544,1.5434,1.5466,1.5422,1.5422,1.5396,1.5398,1.5281,1.5382,1.5382,1.5382,1.5382,0,1.5973,1.5915,1.589,1.5849,1.5784,1.5771,1.5706,1.5684,1.565,1.5603,1.5603,1.5559,1.554,1.5493,1.5479,1.5411,1.5398,1.5386,1.5382,1.5385,1.5386,1.5364,1.5368,1.5379,1.5379,1.538,1.5381,0,1.5892,1.5874,1.5801,1.5759,1.5748,1.5701,1.5665,1.5624,1.5607,1.5548,1.5533,1.5504,1.5449,1.5428,1.536,1.5351,1.5271,1.5273,1.5285,1.5284,1.524,1.5243,1.5103,1.5083,1.5199,1.5198,1.5197,0,1.5833,1.5788,1.5743,1.5712,1.5689,1.564,1.5608,1.5594,1.556,1.551,1.5475,1.5421,1.5376,1.5287,1.5259,1.5207,1.5206,1.5161,1.5198,1.5202,1.5203,1.5205,1.52,1.5153,1.5152,1.5151,1.515,0,1.5729,1.5722,1.5677,1.5628,1.5591,1.5551,1.5513,1.5488,1.5468,1.543,1.5374,1.534,1.5271,1.5216,1.5163,1.5138,1.5139,1.5139,1.5125,1.5126,1.5134,1.5127,1.5264,1.5141,1.5142,1.5143,1.5143,1.5144,1.5655,1.5616,1.5578,1.5527,1.5497,1.5462,1.5422,1.54,1.5353,1.5297,1.5292,1.5231,1.5191,1.512,1.5093,1.5044,1.5056,1.5037,1.5032,1.5027,1.5023,1.5144,1.5035,1.5035,1.5035,1.5035,1.5035,0,1.555,1.5526,1.548,1.5427,1.5387,1.5395,1.5353,1.5319,1.5266,1.5229,1.5185,1.5121,1.5068,1.5037,1.4983,1.495,1.495,1.4936,1.4938,1.4931,1.5016,1.5032,1.4938,1.4938,1.4938,1.4938,1.4938,1.4938,1.549,1.5423,1.5412,1.5331,1.5307,1.5248,1.5224,1.5191,1.5161,1.5089,1.5046,1.5027,1.4992,1.4936,1.4887,1.4879,1.4859,1.4844,1.4837,1.4916,1.4926,1.4935,1.495,1.484,1.484,1.4756,1.4755,1.4755]}]]